Index of /20260426/WXO-DD/model_rdps/10km/12/084
Name Last modified Size Description
Parent Directory -
20260426T12Z_MSC_RDPS_AbsoluteVorticity_IsbL-0250_RLatLon0.09_PT084H.grib2 2026-04-26 15:05 637K
20260426T12Z_MSC_RDPS_AbsoluteVorticity_IsbL-0500_RLatLon0.09_PT084H.grib2 2026-04-26 15:05 579K
20260426T12Z_MSC_RDPS_AbsoluteVorticity_IsbL-0700_RLatLon0.09_PT084H.grib2 2026-04-26 15:05 622K
20260426T12Z_MSC_RDPS_AbsoluteVorticity_IsbL-0850_RLatLon0.09_PT084H.grib2 2026-04-26 15:05 767K
20260426T12Z_MSC_RDPS_AirTemp_AGL-120m_RLatLon0.09_PT084H.grib2 2026-04-26 15:05 383K
20260426T12Z_MSC_RDPS_AirTemp_AGL-2m_RLatLon0.09_PT084H.grib2 2026-04-26 15:05 613K
20260426T12Z_MSC_RDPS_AirTemp_AGL-40m_RLatLon0.09_PT084H.grib2 2026-04-26 15:05 393K
20260426T12Z_MSC_RDPS_AirTemp_AGL-80m_RLatLon0.09_PT084H.grib2 2026-04-26 15:05 387K
20260426T12Z_MSC_RDPS_AirTemp_IsbL-0001_RLatLon0.09_PT084H.grib2 2026-04-26 15:05 311K
20260426T12Z_MSC_RDPS_AirTemp_IsbL-0005_RLatLon0.09_PT084H.grib2 2026-04-26 15:05 293K
20260426T12Z_MSC_RDPS_AirTemp_IsbL-0010_RLatLon0.09_PT084H.grib2 2026-04-26 15:05 305K
20260426T12Z_MSC_RDPS_AirTemp_IsbL-0020_RLatLon0.09_PT084H.grib2 2026-04-26 15:05 319K
20260426T12Z_MSC_RDPS_AirTemp_IsbL-0030_RLatLon0.09_PT084H.grib2 2026-04-26 15:05 342K
20260426T12Z_MSC_RDPS_AirTemp_IsbL-0050_RLatLon0.09_PT084H.grib2 2026-04-26 15:05 313K
20260426T12Z_MSC_RDPS_AirTemp_IsbL-0100_RLatLon0.09_PT084H.grib2 2026-04-26 15:05 433K
20260426T12Z_MSC_RDPS_AirTemp_IsbL-0150_RLatLon0.09_PT084H.grib2 2026-04-26 15:05 432K
20260426T12Z_MSC_RDPS_AirTemp_IsbL-0175_RLatLon0.09_PT084H.grib2 2026-04-26 15:05 419K
20260426T12Z_MSC_RDPS_AirTemp_IsbL-0200_RLatLon0.09_PT084H.grib2 2026-04-26 15:05 423K
20260426T12Z_MSC_RDPS_AirTemp_IsbL-0225_RLatLon0.09_PT084H.grib2 2026-04-26 15:05 424K
20260426T12Z_MSC_RDPS_AirTemp_IsbL-0250_RLatLon0.09_PT084H.grib2 2026-04-26 15:05 434K
20260426T12Z_MSC_RDPS_AirTemp_IsbL-0275_RLatLon0.09_PT084H.grib2 2026-04-26 15:05 413K
20260426T12Z_MSC_RDPS_AirTemp_IsbL-0300_RLatLon0.09_PT084H.grib2 2026-04-26 15:05 419K
20260426T12Z_MSC_RDPS_AirTemp_IsbL-0350_RLatLon0.09_PT084H.grib2 2026-04-26 15:05 431K
20260426T12Z_MSC_RDPS_AirTemp_IsbL-0400_RLatLon0.09_PT084H.grib2 2026-04-26 15:05 397K
20260426T12Z_MSC_RDPS_AirTemp_IsbL-0450_RLatLon0.09_PT084H.grib2 2026-04-26 15:05 403K
20260426T12Z_MSC_RDPS_AirTemp_IsbL-0500_RLatLon0.09_PT084H.grib2 2026-04-26 15:05 414K
20260426T12Z_MSC_RDPS_AirTemp_IsbL-0550_RLatLon0.09_PT084H.grib2 2026-04-26 15:05 433K
20260426T12Z_MSC_RDPS_AirTemp_IsbL-0600_RLatLon0.09_PT084H.grib2 2026-04-26 15:05 451K
20260426T12Z_MSC_RDPS_AirTemp_IsbL-0650_RLatLon0.09_PT084H.grib2 2026-04-26 15:05 467K
20260426T12Z_MSC_RDPS_AirTemp_IsbL-0700_RLatLon0.09_PT084H.grib2 2026-04-26 15:05 383K
20260426T12Z_MSC_RDPS_AirTemp_IsbL-0750_RLatLon0.09_PT084H.grib2 2026-04-26 15:05 411K
20260426T12Z_MSC_RDPS_AirTemp_IsbL-0800_RLatLon0.09_PT084H.grib2 2026-04-26 15:05 446K
20260426T12Z_MSC_RDPS_AirTemp_IsbL-0850_RLatLon0.09_PT084H.grib2 2026-04-26 15:05 491K
20260426T12Z_MSC_RDPS_AirTemp_IsbL-0875_RLatLon0.09_PT084H.grib2 2026-04-26 15:05 511K
20260426T12Z_MSC_RDPS_AirTemp_IsbL-0900_RLatLon0.09_PT084H.grib2 2026-04-26 15:05 520K
20260426T12Z_MSC_RDPS_AirTemp_IsbL-0925_RLatLon0.09_PT084H.grib2 2026-04-26 15:05 516K
20260426T12Z_MSC_RDPS_AirTemp_IsbL-0950_RLatLon0.09_PT084H.grib2 2026-04-26 15:05 513K
20260426T12Z_MSC_RDPS_AirTemp_IsbL-0970_RLatLon0.09_PT084H.grib2 2026-04-26 15:05 505K
20260426T12Z_MSC_RDPS_AirTemp_IsbL-0985_RLatLon0.09_PT084H.grib2 2026-04-26 15:05 508K
20260426T12Z_MSC_RDPS_AirTemp_IsbL-1000_RLatLon0.09_PT084H.grib2 2026-04-26 15:05 499K
20260426T12Z_MSC_RDPS_AirTemp_IsbL-1015_RLatLon0.09_PT084H.grib2 2026-04-26 15:05 495K
20260426T12Z_MSC_RDPS_Albedo_Sfc_RLatLon0.09_PT084H.grib2 2026-04-26 15:05 158K
20260426T12Z_MSC_RDPS_CAPE_Sfc_RLatLon0.09_PT084H.grib2 2026-04-26 15:05 1.7M
20260426T12Z_MSC_RDPS_CIN_Sfc_RLatLon0.09_PT084H.grib2 2026-04-26 15:05 1.3M
20260426T12Z_MSC_RDPS_CloudWater_EAtm_RLatLon0.09_PT084H.grib2 2026-04-26 15:05 220K
20260426T12Z_MSC_RDPS_ConvectivePrecip-Accum_Sfc_RLatLon0.09_PT084H.grib2 2026-04-26 15:05 1.3M
20260426T12Z_MSC_RDPS_DewPointDepression_AGL-2m_RLatLon0.09_PT084H.grib2 2026-04-26 15:05 407K
20260426T12Z_MSC_RDPS_DewPointDepression_IsbL-0001_RLatLon0.09_PT084H.grib2 2026-04-26 15:05 193
20260426T12Z_MSC_RDPS_DewPointDepression_IsbL-0005_RLatLon0.09_PT084H.grib2 2026-04-26 15:05 193
20260426T12Z_MSC_RDPS_DewPointDepression_IsbL-0010_RLatLon0.09_PT084H.grib2 2026-04-26 15:05 193
20260426T12Z_MSC_RDPS_DewPointDepression_IsbL-0020_RLatLon0.09_PT084H.grib2 2026-04-26 15:05 193
20260426T12Z_MSC_RDPS_DewPointDepression_IsbL-0030_RLatLon0.09_PT084H.grib2 2026-04-26 15:05 193
20260426T12Z_MSC_RDPS_DewPointDepression_IsbL-0050_RLatLon0.09_PT084H.grib2 2026-04-26 15:05 80K
20260426T12Z_MSC_RDPS_DewPointDepression_IsbL-0100_RLatLon0.09_PT084H.grib2 2026-04-26 15:05 129K
20260426T12Z_MSC_RDPS_DewPointDepression_IsbL-0150_RLatLon0.09_PT084H.grib2 2026-04-26 15:05 153K
20260426T12Z_MSC_RDPS_DewPointDepression_IsbL-0175_RLatLon0.09_PT084H.grib2 2026-04-26 15:05 183K
20260426T12Z_MSC_RDPS_DewPointDepression_IsbL-0200_RLatLon0.09_PT084H.grib2 2026-04-26 15:05 225K
20260426T12Z_MSC_RDPS_DewPointDepression_IsbL-0225_RLatLon0.09_PT084H.grib2 2026-04-26 15:05 271K
20260426T12Z_MSC_RDPS_DewPointDepression_IsbL-0250_RLatLon0.09_PT084H.grib2 2026-04-26 15:05 306K
20260426T12Z_MSC_RDPS_DewPointDepression_IsbL-0275_RLatLon0.09_PT084H.grib2 2026-04-26 15:05 310K
20260426T12Z_MSC_RDPS_DewPointDepression_IsbL-0300_RLatLon0.09_PT084H.grib2 2026-04-26 15:05 328K
20260426T12Z_MSC_RDPS_DewPointDepression_IsbL-0350_RLatLon0.09_PT084H.grib2 2026-04-26 15:05 332K
20260426T12Z_MSC_RDPS_DewPointDepression_IsbL-0400_RLatLon0.09_PT084H.grib2 2026-04-26 15:05 339K
20260426T12Z_MSC_RDPS_DewPointDepression_IsbL-0450_RLatLon0.09_PT084H.grib2 2026-04-26 15:05 347K
20260426T12Z_MSC_RDPS_DewPointDepression_IsbL-0500_RLatLon0.09_PT084H.grib2 2026-04-26 15:05 352K
20260426T12Z_MSC_RDPS_DewPointDepression_IsbL-0550_RLatLon0.09_PT084H.grib2 2026-04-26 15:05 365K
20260426T12Z_MSC_RDPS_DewPointDepression_IsbL-0600_RLatLon0.09_PT084H.grib2 2026-04-26 15:05 378K
20260426T12Z_MSC_RDPS_DewPointDepression_IsbL-0650_RLatLon0.09_PT084H.grib2 2026-04-26 15:05 386K
20260426T12Z_MSC_RDPS_DewPointDepression_IsbL-0700_RLatLon0.09_PT084H.grib2 2026-04-26 15:05 396K
20260426T12Z_MSC_RDPS_DewPointDepression_IsbL-0750_RLatLon0.09_PT084H.grib2 2026-04-26 15:05 414K
20260426T12Z_MSC_RDPS_DewPointDepression_IsbL-0800_RLatLon0.09_PT084H.grib2 2026-04-26 15:05 442K
20260426T12Z_MSC_RDPS_DewPointDepression_IsbL-0850_RLatLon0.09_PT084H.grib2 2026-04-26 15:05 466K
20260426T12Z_MSC_RDPS_DewPointDepression_IsbL-0875_RLatLon0.09_PT084H.grib2 2026-04-26 15:05 469K
20260426T12Z_MSC_RDPS_DewPointDepression_IsbL-0900_RLatLon0.09_PT084H.grib2 2026-04-26 15:05 462K
20260426T12Z_MSC_RDPS_DewPointDepression_IsbL-0925_RLatLon0.09_PT084H.grib2 2026-04-26 15:05 448K
20260426T12Z_MSC_RDPS_DewPointDepression_IsbL-0950_RLatLon0.09_PT084H.grib2 2026-04-26 15:05 437K
20260426T12Z_MSC_RDPS_DewPointDepression_IsbL-0970_RLatLon0.09_PT084H.grib2 2026-04-26 15:05 424K
20260426T12Z_MSC_RDPS_DewPointDepression_IsbL-0985_RLatLon0.09_PT084H.grib2 2026-04-26 15:05 418K
20260426T12Z_MSC_RDPS_DewPointDepression_IsbL-1000_RLatLon0.09_PT084H.grib2 2026-04-26 15:05 415K
20260426T12Z_MSC_RDPS_DewPointDepression_IsbL-1015_RLatLon0.09_PT084H.grib2 2026-04-26 15:05 405K
20260426T12Z_MSC_RDPS_DewPoint_AGL-2m_RLatLon0.09_PT084H.grib2 2026-04-26 15:05 388K
20260426T12Z_MSC_RDPS_DownwardLongwaveRadiationFlux-Accum_Sfc_RLatLon0.09_PT084H.grib2 2026-04-26 15:05 444K
20260426T12Z_MSC_RDPS_DownwardShortwaveRadiationFlux-Accum_NTAtm_RLatLon0.09_PT084H.grib2 2026-04-26 15:05 119K
20260426T12Z_MSC_RDPS_DownwardShortwaveRadiationFlux-Accum_Sfc_RLatLon0.09_PT084H.grib2 2026-04-26 15:05 518K
20260426T12Z_MSC_RDPS_FreezingRain-Accum12h_Sfc_RLatLon0.09_PT084H.grib2 2026-04-26 15:05 71K
20260426T12Z_MSC_RDPS_FreezingRain-Accum1h_Sfc_RLatLon0.09_PT084H.grib2 2026-04-26 15:05 15K
20260426T12Z_MSC_RDPS_FreezingRain-Accum24h_Sfc_RLatLon0.09_PT084H.grib2 2026-04-26 15:05 111K
20260426T12Z_MSC_RDPS_FreezingRain-Accum3h_Sfc_RLatLon0.09_PT084H.grib2 2026-04-26 15:05 18K
20260426T12Z_MSC_RDPS_FreezingRain-Accum6h_Sfc_RLatLon0.09_PT084H.grib2 2026-04-26 15:05 27K
20260426T12Z_MSC_RDPS_FreezingRain-Accum_Sfc_RLatLon0.09_PT084H.grib2 2026-04-26 15:05 234K
20260426T12Z_MSC_RDPS_GeopotentialHeight_IsbL-0001_RLatLon0.09_PT084H.grib2 2026-04-26 15:05 314K
20260426T12Z_MSC_RDPS_GeopotentialHeight_IsbL-0005_RLatLon0.09_PT084H.grib2 2026-04-26 15:05 336K
20260426T12Z_MSC_RDPS_GeopotentialHeight_IsbL-0010_RLatLon0.09_PT084H.grib2 2026-04-26 15:05 337K
20260426T12Z_MSC_RDPS_GeopotentialHeight_IsbL-0020_RLatLon0.09_PT084H.grib2 2026-04-26 15:05 303K
20260426T12Z_MSC_RDPS_GeopotentialHeight_IsbL-0030_RLatLon0.09_PT084H.grib2 2026-04-26 15:05 304K
20260426T12Z_MSC_RDPS_GeopotentialHeight_IsbL-0050_RLatLon0.09_PT084H.grib2 2026-04-26 15:05 339K
20260426T12Z_MSC_RDPS_GeopotentialHeight_IsbL-0100_RLatLon0.09_PT084H.grib2 2026-04-26 15:05 285K
20260426T12Z_MSC_RDPS_GeopotentialHeight_IsbL-0150_RLatLon0.09_PT084H.grib2 2026-04-26 15:05 232K
20260426T12Z_MSC_RDPS_GeopotentialHeight_IsbL-0175_RLatLon0.09_PT084H.grib2 2026-04-26 15:05 266K
20260426T12Z_MSC_RDPS_GeopotentialHeight_IsbL-0200_RLatLon0.09_PT084H.grib2 2026-04-26 15:05 268K
20260426T12Z_MSC_RDPS_GeopotentialHeight_IsbL-0225_RLatLon0.09_PT084H.grib2 2026-04-26 15:05 269K
20260426T12Z_MSC_RDPS_GeopotentialHeight_IsbL-0250_RLatLon0.09_PT084H.grib2 2026-04-26 15:05 269K
20260426T12Z_MSC_RDPS_GeopotentialHeight_IsbL-0275_RLatLon0.09_PT084H.grib2 2026-04-26 15:05 268K
20260426T12Z_MSC_RDPS_GeopotentialHeight_IsbL-0300_RLatLon0.09_PT084H.grib2 2026-04-26 15:05 267K
20260426T12Z_MSC_RDPS_GeopotentialHeight_IsbL-0350_RLatLon0.09_PT084H.grib2 2026-04-26 15:05 232K
20260426T12Z_MSC_RDPS_GeopotentialHeight_IsbL-0400_RLatLon0.09_PT084H.grib2 2026-04-26 15:05 229K
20260426T12Z_MSC_RDPS_GeopotentialHeight_IsbL-0450_RLatLon0.09_PT084H.grib2 2026-04-26 15:05 297K
20260426T12Z_MSC_RDPS_GeopotentialHeight_IsbL-0500_RLatLon0.09_PT084H.grib2 2026-04-26 15:05 292K
20260426T12Z_MSC_RDPS_GeopotentialHeight_IsbL-0550_RLatLon0.09_PT084H.grib2 2026-04-26 15:05 289K
20260426T12Z_MSC_RDPS_GeopotentialHeight_IsbL-0600_RLatLon0.09_PT084H.grib2 2026-04-26 15:05 288K
20260426T12Z_MSC_RDPS_GeopotentialHeight_IsbL-0650_RLatLon0.09_PT084H.grib2 2026-04-26 15:05 257K
20260426T12Z_MSC_RDPS_GeopotentialHeight_IsbL-0700_RLatLon0.09_PT084H.grib2 2026-04-26 15:05 337K
20260426T12Z_MSC_RDPS_GeopotentialHeight_IsbL-0750_RLatLon0.09_PT084H.grib2 2026-04-26 15:05 338K
20260426T12Z_MSC_RDPS_GeopotentialHeight_IsbL-0800_RLatLon0.09_PT084H.grib2 2026-04-26 15:05 344K
20260426T12Z_MSC_RDPS_GeopotentialHeight_IsbL-0850_RLatLon0.09_PT084H.grib2 2026-04-26 15:05 384K
20260426T12Z_MSC_RDPS_GeopotentialHeight_IsbL-0875_RLatLon0.09_PT084H.grib2 2026-04-26 15:05 388K
20260426T12Z_MSC_RDPS_GeopotentialHeight_IsbL-0900_RLatLon0.09_PT084H.grib2 2026-04-26 15:05 393K
20260426T12Z_MSC_RDPS_GeopotentialHeight_IsbL-0925_RLatLon0.09_PT084H.grib2 2026-04-26 15:05 396K
20260426T12Z_MSC_RDPS_GeopotentialHeight_IsbL-0950_RLatLon0.09_PT084H.grib2 2026-04-26 15:05 399K
20260426T12Z_MSC_RDPS_GeopotentialHeight_IsbL-0970_RLatLon0.09_PT084H.grib2 2026-04-26 15:05 404K
20260426T12Z_MSC_RDPS_GeopotentialHeight_IsbL-0985_RLatLon0.09_PT084H.grib2 2026-04-26 15:05 412K
20260426T12Z_MSC_RDPS_GeopotentialHeight_IsbL-1000_RLatLon0.09_PT084H.grib2 2026-04-26 15:05 424K
20260426T12Z_MSC_RDPS_GeopotentialHeight_IsbL-1015_RLatLon0.09_PT084H.grib2 2026-04-26 15:05 439K
20260426T12Z_MSC_RDPS_Humidex_Sfc_RLatLon0.09_PT084H.grib2 2026-04-26 15:05 2.4M
20260426T12Z_MSC_RDPS_IcePellets-Accum12h_Sfc_RLatLon0.09_PT084H.grib2 2026-04-26 15:05 13K
20260426T12Z_MSC_RDPS_IcePellets-Accum1h_Sfc_RLatLon0.09_PT084H.grib2 2026-04-26 15:05 2.1K
20260426T12Z_MSC_RDPS_IcePellets-Accum24h_Sfc_RLatLon0.09_PT084H.grib2 2026-04-26 15:05 23K
20260426T12Z_MSC_RDPS_IcePellets-Accum3h_Sfc_RLatLon0.09_PT084H.grib2 2026-04-26 15:05 3.7K
20260426T12Z_MSC_RDPS_IcePellets-Accum6h_Sfc_RLatLon0.09_PT084H.grib2 2026-04-26 15:05 7.1K
20260426T12Z_MSC_RDPS_IcePellets-Accum_Sfc_RLatLon0.09_PT084H.grib2 2026-04-26 15:05 42K
20260426T12Z_MSC_RDPS_KIndex_Sfc_RLatLon0.09_PT084H.grib2 2026-04-26 15:05 2.5M
20260426T12Z_MSC_RDPS_LatentHeatNetFlux_Sfc_RLatLon0.09_PT084H.grib2 2026-04-26 15:05 349K
20260426T12Z_MSC_RDPS_LiftedIndex-MU-VT_IsbL-0500_RLatLon0.09_PT084H.grib2 2026-04-26 15:05 2.4M
20260426T12Z_MSC_RDPS_NetLongwaveRadiationFlux-Accum_Sfc_RLatLon0.09_PT084H.grib2 2026-04-26 15:05 455K
20260426T12Z_MSC_RDPS_NetShortwaveRadiationFlux-Accum_Sfc_RLatLon0.09_PT084H.grib2 2026-04-26 15:05 524K
20260426T12Z_MSC_RDPS_PlanetaryBoundaryLayerHeight_Sfc_RLatLon0.09_PT084H.grib2 2026-04-26 15:05 1.0M
20260426T12Z_MSC_RDPS_Precip-Accum12h_Sfc_RLatLon0.09_PT084H.grib2 2026-04-26 15:05 1.5M
20260426T12Z_MSC_RDPS_Precip-Accum1h_Sfc_RLatLon0.09_PT084H.grib2 2026-04-26 15:05 1.1M
20260426T12Z_MSC_RDPS_Precip-Accum24h_Sfc_RLatLon0.09_PT084H.grib2 2026-04-26 15:05 1.8M
20260426T12Z_MSC_RDPS_Precip-Accum3h_Sfc_RLatLon0.09_PT084H.grib2 2026-04-26 15:05 1.3M
20260426T12Z_MSC_RDPS_Precip-Accum6h_Sfc_RLatLon0.09_PT084H.grib2 2026-04-26 15:05 1.4M
20260426T12Z_MSC_RDPS_Precip-Accum_Sfc_RLatLon0.09_PT084H.grib2 2026-04-26 15:05 2.1M
20260426T12Z_MSC_RDPS_PrecipRate_Sfc_RLatLon0.09_PT084H.grib2 2026-04-26 15:05 155K
20260426T12Z_MSC_RDPS_PrecipType-Instant_Sfc_RLatLon0.09_PT084H.grib2 2026-04-26 15:05 544K
20260426T12Z_MSC_RDPS_Pressure-Trend3h_Sfc_RLatLon0.09_PT084H.grib2 2026-04-26 15:05 1.2M
20260426T12Z_MSC_RDPS_Pressure_MSL_RLatLon0.09_PT084H.grib2 2026-04-26 15:05 327K
20260426T12Z_MSC_RDPS_Pressure_PVU-1.5_RLatLon0.09_PT084H.grib2 2026-04-26 15:05 2.3M
20260426T12Z_MSC_RDPS_Pressure_PVU-1_RLatLon0.09_PT084H.grib2 2026-04-26 15:05 2.4M
20260426T12Z_MSC_RDPS_Pressure_PVU-2_RLatLon0.09_PT084H.grib2 2026-04-26 15:05 2.4M
20260426T12Z_MSC_RDPS_Pressure_Sfc_RLatLon0.09_PT084H.grib2 2026-04-26 15:05 500K
20260426T12Z_MSC_RDPS_RadiativeTemp_Sfc_RLatLon0.09_PT084H.grib2 2026-04-26 15:05 308K
20260426T12Z_MSC_RDPS_Rain-Accum12h_Sfc_RLatLon0.09_PT084H.grib2 2026-04-26 15:05 1.0M
20260426T12Z_MSC_RDPS_Rain-Accum1h_Sfc_RLatLon0.09_PT084H.grib2 2026-04-26 15:05 503K
20260426T12Z_MSC_RDPS_Rain-Accum24h_Sfc_RLatLon0.09_PT084H.grib2 2026-04-26 15:05 1.3M
20260426T12Z_MSC_RDPS_Rain-Accum3h_Sfc_RLatLon0.09_PT084H.grib2 2026-04-26 15:05 577K
20260426T12Z_MSC_RDPS_Rain-Accum6h_Sfc_RLatLon0.09_PT084H.grib2 2026-04-26 15:05 900K
20260426T12Z_MSC_RDPS_Rain-Accum_Sfc_RLatLon0.09_PT084H.grib2 2026-04-26 15:05 1.7M
20260426T12Z_MSC_RDPS_RelativeHumidity_AGL-2m_RLatLon0.09_PT084H.grib2 2026-04-26 15:05 1.0M
20260426T12Z_MSC_RDPS_RelativeHumidity_IsbL-0010_RLatLon0.09_PT084H.grib2 2026-04-26 15:05 611K
20260426T12Z_MSC_RDPS_RelativeHumidity_IsbL-0020_RLatLon0.09_PT084H.grib2 2026-04-26 15:05 638K
20260426T12Z_MSC_RDPS_RelativeHumidity_IsbL-0030_RLatLon0.09_PT084H.grib2 2026-04-26 15:05 607K
20260426T12Z_MSC_RDPS_RelativeHumidity_IsbL-0050_RLatLon0.09_PT084H.grib2 2026-04-26 15:05 321K
20260426T12Z_MSC_RDPS_RelativeHumidity_IsbL-0100_RLatLon0.09_PT084H.grib2 2026-04-26 15:05 285K
20260426T12Z_MSC_RDPS_RelativeHumidity_IsbL-0150_RLatLon0.09_PT084H.grib2 2026-04-26 15:05 423K
20260426T12Z_MSC_RDPS_RelativeHumidity_IsbL-0175_RLatLon0.09_PT084H.grib2 2026-04-26 15:05 493K
20260426T12Z_MSC_RDPS_RelativeHumidity_IsbL-0200_RLatLon0.09_PT084H.grib2 2026-04-26 15:05 573K
20260426T12Z_MSC_RDPS_RelativeHumidity_IsbL-0225_RLatLon0.09_PT084H.grib2 2026-04-26 15:05 638K
20260426T12Z_MSC_RDPS_RelativeHumidity_IsbL-0250_RLatLon0.09_PT084H.grib2 2026-04-26 15:05 708K
20260426T12Z_MSC_RDPS_RelativeHumidity_IsbL-0275_RLatLon0.09_PT084H.grib2 2026-04-26 15:05 732K
20260426T12Z_MSC_RDPS_RelativeHumidity_IsbL-0300_RLatLon0.09_PT084H.grib2 2026-04-26 15:05 773K
20260426T12Z_MSC_RDPS_RelativeHumidity_IsbL-0350_RLatLon0.09_PT084H.grib2 2026-04-26 15:05 786K
20260426T12Z_MSC_RDPS_RelativeHumidity_IsbL-0400_RLatLon0.09_PT084H.grib2 2026-04-26 15:05 793K
20260426T12Z_MSC_RDPS_RelativeHumidity_IsbL-0450_RLatLon0.09_PT084H.grib2 2026-04-26 15:05 799K
20260426T12Z_MSC_RDPS_RelativeHumidity_IsbL-0500_RLatLon0.09_PT084H.grib2 2026-04-26 15:05 805K
20260426T12Z_MSC_RDPS_RelativeHumidity_IsbL-0550_RLatLon0.09_PT084H.grib2 2026-04-26 15:05 822K
20260426T12Z_MSC_RDPS_RelativeHumidity_IsbL-0600_RLatLon0.09_PT084H.grib2 2026-04-26 15:05 844K
20260426T12Z_MSC_RDPS_RelativeHumidity_IsbL-0650_RLatLon0.09_PT084H.grib2 2026-04-26 15:05 856K
20260426T12Z_MSC_RDPS_RelativeHumidity_IsbL-0700_RLatLon0.09_PT084H.grib2 2026-04-26 15:05 877K
20260426T12Z_MSC_RDPS_RelativeHumidity_IsbL-0750_RLatLon0.09_PT084H.grib2 2026-04-26 15:05 915K
20260426T12Z_MSC_RDPS_RelativeHumidity_IsbL-0800_RLatLon0.09_PT084H.grib2 2026-04-26 15:05 971K
20260426T12Z_MSC_RDPS_RelativeHumidity_IsbL-0850_RLatLon0.09_PT084H.grib2 2026-04-26 15:05 1.0M
20260426T12Z_MSC_RDPS_RelativeHumidity_IsbL-0875_RLatLon0.09_PT084H.grib2 2026-04-26 15:05 1.0M
20260426T12Z_MSC_RDPS_RelativeHumidity_IsbL-0900_RLatLon0.09_PT084H.grib2 2026-04-26 15:05 1.0M
20260426T12Z_MSC_RDPS_RelativeHumidity_IsbL-0925_RLatLon0.09_PT084H.grib2 2026-04-26 15:05 1.0M
20260426T12Z_MSC_RDPS_RelativeHumidity_IsbL-0950_RLatLon0.09_PT084H.grib2 2026-04-26 15:05 1.0M
20260426T12Z_MSC_RDPS_RelativeHumidity_IsbL-0970_RLatLon0.09_PT084H.grib2 2026-04-26 15:05 1.0M
20260426T12Z_MSC_RDPS_RelativeHumidity_IsbL-0985_RLatLon0.09_PT084H.grib2 2026-04-26 15:05 1.0M
20260426T12Z_MSC_RDPS_RelativeHumidity_IsbL-1000_RLatLon0.09_PT084H.grib2 2026-04-26 15:05 1.0M
20260426T12Z_MSC_RDPS_RelativeHumidity_IsbL-1015_RLatLon0.09_PT084H.grib2 2026-04-26 15:05 1.0M
20260426T12Z_MSC_RDPS_Runoff-Accum_Sfc_RLatLon0.09_PT084H.grib2 2026-04-26 15:05 66K
20260426T12Z_MSC_RDPS_SWEATIndex_Sfc_RLatLon0.09_PT084H.grib2 2026-04-26 15:05 2.4M
20260426T12Z_MSC_RDPS_SeeingIndex_EAtm_RLatLon0.09_PT084H.grib2 2026-04-26 15:05 1.0M
20260426T12Z_MSC_RDPS_SensibleHeatNetFlux_Sfc_RLatLon0.09_PT084H.grib2 2026-04-26 15:05 313K
20260426T12Z_MSC_RDPS_ShowalterIndex_IsbL-0500_RLatLon0.09_PT084H.grib2 2026-04-26 15:05 2.6M
20260426T12Z_MSC_RDPS_SkyTransparencyIndex_EAtm_RLatLon0.09_PT084H.grib2 2026-04-26 15:05 671K
20260426T12Z_MSC_RDPS_Snow-Accum12h_Sfc_RLatLon0.09_PT084H.grib2 2026-04-26 15:05 579K
20260426T12Z_MSC_RDPS_Snow-Accum1h_Sfc_RLatLon0.09_PT084H.grib2 2026-04-26 15:05 401K
20260426T12Z_MSC_RDPS_Snow-Accum24h_Sfc_RLatLon0.09_PT084H.grib2 2026-04-26 15:05 650K
20260426T12Z_MSC_RDPS_Snow-Accum3h_Sfc_RLatLon0.09_PT084H.grib2 2026-04-26 15:05 410K
20260426T12Z_MSC_RDPS_Snow-Accum6h_Sfc_RLatLon0.09_PT084H.grib2 2026-04-26 15:05 556K
20260426T12Z_MSC_RDPS_Snow-Accum_Sfc_RLatLon0.09_PT084H.grib2 2026-04-26 15:05 882K
20260426T12Z_MSC_RDPS_SnowDensity_Sfc_RLatLon0.09_PT084H.grib2 2026-04-26 15:05 187K
20260426T12Z_MSC_RDPS_SnowDepth_Sfc_RLatLon0.09_PT084H.grib2 2026-04-26 15:05 699K
20260426T12Z_MSC_RDPS_SoilTemp_DBS-0to10cm_RLatLon0.09_PT084H.grib2 2026-04-26 15:05 247K
20260426T12Z_MSC_RDPS_SoilTemp_Sfc_RLatLon0.09_PT084H.grib2 2026-04-26 15:05 279K
20260426T12Z_MSC_RDPS_SoilVolumetricIceContent_Sfc_RLatLon0.09_PT084H.grib2 2026-04-26 15:05 165K
20260426T12Z_MSC_RDPS_SoilVolumetricWaterContent_DBS-0to10cm_RLatLon0.09_PT084H.grib2 2026-04-26 15:05 267K
20260426T12Z_MSC_RDPS_SoilVolumetricWaterContent_DBS-0to1cm_RLatLon0.09_PT084H.grib2 2026-04-26 15:05 339K
20260426T12Z_MSC_RDPS_SpecificHumidity_AGL-120m_RLatLon0.09_PT084H.grib2 2026-04-26 15:05 481K
20260426T12Z_MSC_RDPS_SpecificHumidity_AGL-2m_RLatLon0.09_PT084H.grib2 2026-04-26 15:05 647K
20260426T12Z_MSC_RDPS_SpecificHumidity_AGL-40m_RLatLon0.09_PT084H.grib2 2026-04-26 15:05 487K
20260426T12Z_MSC_RDPS_SpecificHumidity_AGL-80m_RLatLon0.09_PT084H.grib2 2026-04-26 15:05 482K
20260426T12Z_MSC_RDPS_SpecificHumidity_IsbL-0001_RLatLon0.09_PT084H.grib2 2026-04-26 15:05 348K
20260426T12Z_MSC_RDPS_SpecificHumidity_IsbL-0005_RLatLon0.09_PT084H.grib2 2026-04-26 15:05 345K
20260426T12Z_MSC_RDPS_SpecificHumidity_IsbL-0010_RLatLon0.09_PT084H.grib2 2026-04-26 15:05 383K
20260426T12Z_MSC_RDPS_SpecificHumidity_IsbL-0020_RLatLon0.09_PT084H.grib2 2026-04-26 15:05 480K
20260426T12Z_MSC_RDPS_SpecificHumidity_IsbL-0030_RLatLon0.09_PT084H.grib2 2026-04-26 15:05 433K
20260426T12Z_MSC_RDPS_SpecificHumidity_IsbL-0050_RLatLon0.09_PT084H.grib2 2026-04-26 15:05 440K
20260426T12Z_MSC_RDPS_SpecificHumidity_IsbL-0100_RLatLon0.09_PT084H.grib2 2026-04-26 15:05 349K
20260426T12Z_MSC_RDPS_SpecificHumidity_IsbL-0150_RLatLon0.09_PT084H.grib2 2026-04-26 15:05 487K
20260426T12Z_MSC_RDPS_SpecificHumidity_IsbL-0175_RLatLon0.09_PT084H.grib2 2026-04-26 15:05 448K
20260426T12Z_MSC_RDPS_SpecificHumidity_IsbL-0200_RLatLon0.09_PT084H.grib2 2026-04-26 15:05 486K
20260426T12Z_MSC_RDPS_SpecificHumidity_IsbL-0225_RLatLon0.09_PT084H.grib2 2026-04-26 15:05 470K
20260426T12Z_MSC_RDPS_SpecificHumidity_IsbL-0250_RLatLon0.09_PT084H.grib2 2026-04-26 15:05 577K
20260426T12Z_MSC_RDPS_SpecificHumidity_IsbL-0275_RLatLon0.09_PT084H.grib2 2026-04-26 15:05 486K
20260426T12Z_MSC_RDPS_SpecificHumidity_IsbL-0300_RLatLon0.09_PT084H.grib2 2026-04-26 15:05 457K
20260426T12Z_MSC_RDPS_SpecificHumidity_IsbL-0350_RLatLon0.09_PT084H.grib2 2026-04-26 15:05 445K
20260426T12Z_MSC_RDPS_SpecificHumidity_IsbL-0400_RLatLon0.09_PT084H.grib2 2026-04-26 15:05 521K
20260426T12Z_MSC_RDPS_SpecificHumidity_IsbL-0450_RLatLon0.09_PT084H.grib2 2026-04-26 15:05 573K
20260426T12Z_MSC_RDPS_SpecificHumidity_IsbL-0500_RLatLon0.09_PT084H.grib2 2026-04-26 15:05 509K
20260426T12Z_MSC_RDPS_SpecificHumidity_IsbL-0550_RLatLon0.09_PT084H.grib2 2026-04-26 15:05 583K
20260426T12Z_MSC_RDPS_SpecificHumidity_IsbL-0600_RLatLon0.09_PT084H.grib2 2026-04-26 15:05 640K
20260426T12Z_MSC_RDPS_SpecificHumidity_IsbL-0650_RLatLon0.09_PT084H.grib2 2026-04-26 15:05 559K
20260426T12Z_MSC_RDPS_SpecificHumidity_IsbL-0700_RLatLon0.09_PT084H.grib2 2026-04-26 15:05 601K
20260426T12Z_MSC_RDPS_SpecificHumidity_IsbL-0750_RLatLon0.09_PT084H.grib2 2026-04-26 15:05 651K
20260426T12Z_MSC_RDPS_SpecificHumidity_IsbL-0800_RLatLon0.09_PT084H.grib2 2026-04-26 15:05 726K
20260426T12Z_MSC_RDPS_SpecificHumidity_IsbL-0850_RLatLon0.09_PT084H.grib2 2026-04-26 15:05 794K
20260426T12Z_MSC_RDPS_SpecificHumidity_IsbL-0875_RLatLon0.09_PT084H.grib2 2026-04-26 15:05 822K
20260426T12Z_MSC_RDPS_SpecificHumidity_IsbL-0900_RLatLon0.09_PT084H.grib2 2026-04-26 15:05 699K
20260426T12Z_MSC_RDPS_SpecificHumidity_IsbL-0925_RLatLon0.09_PT084H.grib2 2026-04-26 15:05 700K
20260426T12Z_MSC_RDPS_SpecificHumidity_IsbL-0950_RLatLon0.09_PT084H.grib2 2026-04-26 15:05 697K
20260426T12Z_MSC_RDPS_SpecificHumidity_IsbL-0970_RLatLon0.09_PT084H.grib2 2026-04-26 15:05 684K
20260426T12Z_MSC_RDPS_SpecificHumidity_IsbL-0985_RLatLon0.09_PT084H.grib2 2026-04-26 15:05 674K
20260426T12Z_MSC_RDPS_SpecificHumidity_IsbL-1000_RLatLon0.09_PT084H.grib2 2026-04-26 15:05 667K
20260426T12Z_MSC_RDPS_SpecificHumidity_IsbL-1015_RLatLon0.09_PT084H.grib2 2026-04-26 15:05 657K
20260426T12Z_MSC_RDPS_SpecificHumidity_Sfc_RLatLon0.09_PT084H.grib2 2026-04-26 15:05 325K
20260426T12Z_MSC_RDPS_StormRelativeHelicity_EtaL-10000_RLatLon0.09_PT084H.grib2 2026-04-26 15:05 1.1M
20260426T12Z_MSC_RDPS_StormSeverityIndex_EtaL-10000_RLatLon0.09_PT084H.grib2 2026-04-26 15:05 1.1M
20260426T12Z_MSC_RDPS_Thickness_IsbL-0850to0700_RLatLon0.09_PT084H.grib2 2026-04-26 15:05 178K
20260426T12Z_MSC_RDPS_Thickness_IsbL-1000to0500_RLatLon0.09_PT084H.grib2 2026-04-26 15:05 139K
20260426T12Z_MSC_RDPS_Thickness_IsbL-1000to0850_RLatLon0.09_PT084H.grib2 2026-04-26 15:05 185K
20260426T12Z_MSC_RDPS_TotalCloudCover_Sfc_RLatLon0.09_PT084H.grib2 2026-04-26 15:05 640K
20260426T12Z_MSC_RDPS_TotalTotalsIndex_Sfc_RLatLon0.09_PT084H.grib2 2026-04-26 15:05 2.4M
20260426T12Z_MSC_RDPS_UVIndex-ClearSky_Sfc_RLatLon0.09_PT084H.grib2 2026-04-26 15:05 187K
20260426T12Z_MSC_RDPS_UVIndex_Sfc_RLatLon0.09_PT084H.grib2 2026-04-26 15:05 397K
20260426T12Z_MSC_RDPS_UpwardLongwaveRadiationFlux_NTAtm_RLatLon0.09_PT084H.grib2 2026-04-26 15:05 386K
20260426T12Z_MSC_RDPS_UpwardShortwaveRadiationFlux_NTAtm_RLatLon0.09_PT084H.grib2 2026-04-26 15:05 342K
20260426T12Z_MSC_RDPS_VerticalVelocity_IsbL-0250_RLatLon0.09_PT084H.grib2 2026-04-26 15:05 461K
20260426T12Z_MSC_RDPS_VerticalVelocity_IsbL-0500_RLatLon0.09_PT084H.grib2 2026-04-26 15:05 548K
20260426T12Z_MSC_RDPS_VerticalVelocity_IsbL-0700_RLatLon0.09_PT084H.grib2 2026-04-26 15:05 600K
20260426T12Z_MSC_RDPS_VerticalVelocity_IsbL-0850_RLatLon0.09_PT084H.grib2 2026-04-26 15:05 687K
20260426T12Z_MSC_RDPS_VerticalWindShear_EtaL-6500_RLatLon0.09_PT084H.grib2 2026-04-26 15:05 1.2M
20260426T12Z_MSC_RDPS_WindChill_Sfc_RLatLon0.09_PT084H.grib2 2026-04-26 15:05 1.1M
20260426T12Z_MSC_RDPS_WindDir_AGL-10m_RLatLon0.09_PT084H.grib2 2026-04-26 15:05 943K
20260426T12Z_MSC_RDPS_WindDir_AGL-120m_RLatLon0.09_PT084H.grib2 2026-04-26 15:05 596K
20260426T12Z_MSC_RDPS_WindDir_AGL-40m_RLatLon0.09_PT084H.grib2 2026-04-26 15:05 617K
20260426T12Z_MSC_RDPS_WindDir_AGL-80m_RLatLon0.09_PT084H.grib2 2026-04-26 15:05 604K
20260426T12Z_MSC_RDPS_WindDir_IsbL-0001_RLatLon0.09_PT084H.grib2 2026-04-26 15:05 306K
20260426T12Z_MSC_RDPS_WindDir_IsbL-0005_RLatLon0.09_PT084H.grib2 2026-04-26 15:05 349K
20260426T12Z_MSC_RDPS_WindDir_IsbL-0010_RLatLon0.09_PT084H.grib2 2026-04-26 15:05 389K
20260426T12Z_MSC_RDPS_WindDir_IsbL-0020_RLatLon0.09_PT084H.grib2 2026-04-26 15:05 412K
20260426T12Z_MSC_RDPS_WindDir_IsbL-0030_RLatLon0.09_PT084H.grib2 2026-04-26 15:05 416K
20260426T12Z_MSC_RDPS_WindDir_IsbL-0050_RLatLon0.09_PT084H.grib2 2026-04-26 15:05 430K
20260426T12Z_MSC_RDPS_WindDir_IsbL-0100_RLatLon0.09_PT084H.grib2 2026-04-26 15:05 430K
20260426T12Z_MSC_RDPS_WindDir_IsbL-0150_RLatLon0.09_PT084H.grib2 2026-04-26 15:05 417K
20260426T12Z_MSC_RDPS_WindDir_IsbL-0175_RLatLon0.09_PT084H.grib2 2026-04-26 15:05 434K
20260426T12Z_MSC_RDPS_WindDir_IsbL-0200_RLatLon0.09_PT084H.grib2 2026-04-26 15:05 447K
20260426T12Z_MSC_RDPS_WindDir_IsbL-0225_RLatLon0.09_PT084H.grib2 2026-04-26 15:05 449K
20260426T12Z_MSC_RDPS_WindDir_IsbL-0250_RLatLon0.09_PT084H.grib2 2026-04-26 15:05 453K
20260426T12Z_MSC_RDPS_WindDir_IsbL-0275_RLatLon0.09_PT084H.grib2 2026-04-26 15:05 477K
20260426T12Z_MSC_RDPS_WindDir_IsbL-0300_RLatLon0.09_PT084H.grib2 2026-04-26 15:05 475K
20260426T12Z_MSC_RDPS_WindDir_IsbL-0350_RLatLon0.09_PT084H.grib2 2026-04-26 15:05 494K
20260426T12Z_MSC_RDPS_WindDir_IsbL-0400_RLatLon0.09_PT084H.grib2 2026-04-26 15:05 513K
20260426T12Z_MSC_RDPS_WindDir_IsbL-0450_RLatLon0.09_PT084H.grib2 2026-04-26 15:05 529K
20260426T12Z_MSC_RDPS_WindDir_IsbL-0500_RLatLon0.09_PT084H.grib2 2026-04-26 15:05 547K
20260426T12Z_MSC_RDPS_WindDir_IsbL-0550_RLatLon0.09_PT084H.grib2 2026-04-26 15:05 564K
20260426T12Z_MSC_RDPS_WindDir_IsbL-0600_RLatLon0.09_PT084H.grib2 2026-04-26 15:05 593K
20260426T12Z_MSC_RDPS_WindDir_IsbL-0650_RLatLon0.09_PT084H.grib2 2026-04-26 15:05 631K
20260426T12Z_MSC_RDPS_WindDir_IsbL-0700_RLatLon0.09_PT084H.grib2 2026-04-26 15:05 674K
20260426T12Z_MSC_RDPS_WindDir_IsbL-0750_RLatLon0.09_PT084H.grib2 2026-04-26 15:05 714K
20260426T12Z_MSC_RDPS_WindDir_IsbL-0800_RLatLon0.09_PT084H.grib2 2026-04-26 15:05 776K
20260426T12Z_MSC_RDPS_WindDir_IsbL-0850_RLatLon0.09_PT084H.grib2 2026-04-26 15:05 850K
20260426T12Z_MSC_RDPS_WindDir_IsbL-0875_RLatLon0.09_PT084H.grib2 2026-04-26 15:05 876K
20260426T12Z_MSC_RDPS_WindDir_IsbL-0900_RLatLon0.09_PT084H.grib2 2026-04-26 15:05 890K
20260426T12Z_MSC_RDPS_WindDir_IsbL-0925_RLatLon0.09_PT084H.grib2 2026-04-26 15:05 896K
20260426T12Z_MSC_RDPS_WindDir_IsbL-0950_RLatLon0.09_PT084H.grib2 2026-04-26 15:05 897K
20260426T12Z_MSC_RDPS_WindDir_IsbL-0970_RLatLon0.09_PT084H.grib2 2026-04-26 15:05 902K
20260426T12Z_MSC_RDPS_WindDir_IsbL-0985_RLatLon0.09_PT084H.grib2 2026-04-26 15:05 910K
20260426T12Z_MSC_RDPS_WindDir_IsbL-1000_RLatLon0.09_PT084H.grib2 2026-04-26 15:05 921K
20260426T12Z_MSC_RDPS_WindDir_IsbL-1015_RLatLon0.09_PT084H.grib2 2026-04-26 15:05 936K
20260426T12Z_MSC_RDPS_WindGust-Max_AGL-10m_RLatLon0.09_PT084H.grib2 2026-04-26 15:05 1.0M
20260426T12Z_MSC_RDPS_WindGust-Min_AGL-10m_RLatLon0.09_PT084H.grib2 2026-04-26 15:05 1.0M
20260426T12Z_MSC_RDPS_WindGust_AGL-10m_RLatLon0.09_PT084H.grib2 2026-04-26 15:05 1.0M
20260426T12Z_MSC_RDPS_WindSpeed_AGL-10m_RLatLon0.09_PT084H.grib2 2026-04-26 15:05 823K
20260426T12Z_MSC_RDPS_WindSpeed_AGL-120m_RLatLon0.09_PT084H.grib2 2026-04-26 15:05 535K
20260426T12Z_MSC_RDPS_WindSpeed_AGL-40m_RLatLon0.09_PT084H.grib2 2026-04-26 15:05 528K
20260426T12Z_MSC_RDPS_WindSpeed_AGL-80m_RLatLon0.09_PT084H.grib2 2026-04-26 15:05 524K
20260426T12Z_MSC_RDPS_WindSpeed_IsbL-0001_RLatLon0.09_PT084H.grib2 2026-04-26 15:05 254K
20260426T12Z_MSC_RDPS_WindSpeed_IsbL-0005_RLatLon0.09_PT084H.grib2 2026-04-26 15:05 386K
20260426T12Z_MSC_RDPS_WindSpeed_IsbL-0010_RLatLon0.09_PT084H.grib2 2026-04-26 15:05 404K
20260426T12Z_MSC_RDPS_WindSpeed_IsbL-0020_RLatLon0.09_PT084H.grib2 2026-04-26 15:05 328K
20260426T12Z_MSC_RDPS_WindSpeed_IsbL-0030_RLatLon0.09_PT084H.grib2 2026-04-26 15:05 325K
20260426T12Z_MSC_RDPS_WindSpeed_IsbL-0050_RLatLon0.09_PT084H.grib2 2026-04-26 15:05 456K
20260426T12Z_MSC_RDPS_WindSpeed_IsbL-0100_RLatLon0.09_PT084H.grib2 2026-04-26 15:05 487K
20260426T12Z_MSC_RDPS_WindSpeed_IsbL-0150_RLatLon0.09_PT084H.grib2 2026-04-26 15:05 392K
20260426T12Z_MSC_RDPS_WindSpeed_IsbL-0175_RLatLon0.09_PT084H.grib2 2026-04-26 15:05 442K
20260426T12Z_MSC_RDPS_WindSpeed_IsbL-0200_RLatLon0.09_PT084H.grib2 2026-04-26 15:05 458K
20260426T12Z_MSC_RDPS_WindSpeed_IsbL-0225_RLatLon0.09_PT084H.grib2 2026-04-26 15:05 464K
20260426T12Z_MSC_RDPS_WindSpeed_IsbL-0250_RLatLon0.09_PT084H.grib2 2026-04-26 15:05 467K
20260426T12Z_MSC_RDPS_WindSpeed_IsbL-0275_RLatLon0.09_PT084H.grib2 2026-04-26 15:05 483K
20260426T12Z_MSC_RDPS_WindSpeed_IsbL-0300_RLatLon0.09_PT084H.grib2 2026-04-26 15:05 478K
20260426T12Z_MSC_RDPS_WindSpeed_IsbL-0350_RLatLon0.09_PT084H.grib2 2026-04-26 15:05 487K
20260426T12Z_MSC_RDPS_WindSpeed_IsbL-0400_RLatLon0.09_PT084H.grib2 2026-04-26 15:05 470K
20260426T12Z_MSC_RDPS_WindSpeed_IsbL-0450_RLatLon0.09_PT084H.grib2 2026-04-26 15:05 472K
20260426T12Z_MSC_RDPS_WindSpeed_IsbL-0500_RLatLon0.09_PT084H.grib2 2026-04-26 15:05 475K
20260426T12Z_MSC_RDPS_WindSpeed_IsbL-0550_RLatLon0.09_PT084H.grib2 2026-04-26 15:05 594K
20260426T12Z_MSC_RDPS_WindSpeed_IsbL-0600_RLatLon0.09_PT084H.grib2 2026-04-26 15:05 601K
20260426T12Z_MSC_RDPS_WindSpeed_IsbL-0650_RLatLon0.09_PT084H.grib2 2026-04-26 15:05 620K
20260426T12Z_MSC_RDPS_WindSpeed_IsbL-0700_RLatLon0.09_PT084H.grib2 2026-04-26 15:05 642K
20260426T12Z_MSC_RDPS_WindSpeed_IsbL-0750_RLatLon0.09_PT084H.grib2 2026-04-26 15:05 711K
20260426T12Z_MSC_RDPS_WindSpeed_IsbL-0800_RLatLon0.09_PT084H.grib2 2026-04-26 15:05 750K
20260426T12Z_MSC_RDPS_WindSpeed_IsbL-0850_RLatLon0.09_PT084H.grib2 2026-04-26 15:05 803K
20260426T12Z_MSC_RDPS_WindSpeed_IsbL-0875_RLatLon0.09_PT084H.grib2 2026-04-26 15:05 822K
20260426T12Z_MSC_RDPS_WindSpeed_IsbL-0900_RLatLon0.09_PT084H.grib2 2026-04-26 15:05 837K
20260426T12Z_MSC_RDPS_WindSpeed_IsbL-0925_RLatLon0.09_PT084H.grib2 2026-04-26 15:05 847K
20260426T12Z_MSC_RDPS_WindSpeed_IsbL-0950_RLatLon0.09_PT084H.grib2 2026-04-26 15:05 848K
20260426T12Z_MSC_RDPS_WindSpeed_IsbL-0970_RLatLon0.09_PT084H.grib2 2026-04-26 15:05 850K
20260426T12Z_MSC_RDPS_WindSpeed_IsbL-0985_RLatLon0.09_PT084H.grib2 2026-04-26 15:05 842K
20260426T12Z_MSC_RDPS_WindSpeed_IsbL-1000_RLatLon0.09_PT084H.grib2 2026-04-26 15:05 834K
20260426T12Z_MSC_RDPS_WindSpeed_IsbL-1015_RLatLon0.09_PT084H.grib2 2026-04-26 15:05 825K
20260426T12Z_MSC_RDPS_WindU_AGL-10m_RLatLon0.09_PT084H.grib2 2026-04-26 15:05 424K
20260426T12Z_MSC_RDPS_WindU_AGL-120m_RLatLon0.09_PT084H.grib2 2026-04-26 15:05 408K
20260426T12Z_MSC_RDPS_WindU_AGL-40m_RLatLon0.09_PT084H.grib2 2026-04-26 15:05 526K
20260426T12Z_MSC_RDPS_WindU_AGL-80m_RLatLon0.09_PT084H.grib2 2026-04-26 15:05 409K
20260426T12Z_MSC_RDPS_WindU_IsbL-0001_RLatLon0.09_PT084H.grib2 2026-04-26 15:05 294K
20260426T12Z_MSC_RDPS_WindU_IsbL-0005_RLatLon0.09_PT084H.grib2 2026-04-26 15:05 289K
20260426T12Z_MSC_RDPS_WindU_IsbL-0010_RLatLon0.09_PT084H.grib2 2026-04-26 15:05 300K
20260426T12Z_MSC_RDPS_WindU_IsbL-0020_RLatLon0.09_PT084H.grib2 2026-04-26 15:05 356K
20260426T12Z_MSC_RDPS_WindU_IsbL-0030_RLatLon0.09_PT084H.grib2 2026-04-26 15:05 316K
20260426T12Z_MSC_RDPS_WindU_IsbL-0050_RLatLon0.09_PT084H.grib2 2026-04-26 15:05 342K
20260426T12Z_MSC_RDPS_WindU_IsbL-0100_RLatLon0.09_PT084H.grib2 2026-04-26 15:05 441K
20260426T12Z_MSC_RDPS_WindU_IsbL-0150_RLatLon0.09_PT084H.grib2 2026-04-26 15:05 405K
20260426T12Z_MSC_RDPS_WindU_IsbL-0175_RLatLon0.09_PT084H.grib2 2026-04-26 15:05 432K
20260426T12Z_MSC_RDPS_WindU_IsbL-0200_RLatLon0.09_PT084H.grib2 2026-04-26 15:05 448K
20260426T12Z_MSC_RDPS_WindU_IsbL-0225_RLatLon0.09_PT084H.grib2 2026-04-26 15:05 353K
20260426T12Z_MSC_RDPS_WindU_IsbL-0250_RLatLon0.09_PT084H.grib2 2026-04-26 15:05 354K
20260426T12Z_MSC_RDPS_WindU_IsbL-0275_RLatLon0.09_PT084H.grib2 2026-04-26 15:05 368K
20260426T12Z_MSC_RDPS_WindU_IsbL-0300_RLatLon0.09_PT084H.grib2 2026-04-26 15:05 362K
20260426T12Z_MSC_RDPS_WindU_IsbL-0350_RLatLon0.09_PT084H.grib2 2026-04-26 15:05 369K
20260426T12Z_MSC_RDPS_WindU_IsbL-0400_RLatLon0.09_PT084H.grib2 2026-04-26 15:05 474K
20260426T12Z_MSC_RDPS_WindU_IsbL-0450_RLatLon0.09_PT084H.grib2 2026-04-26 15:05 475K
20260426T12Z_MSC_RDPS_WindU_IsbL-0500_RLatLon0.09_PT084H.grib2 2026-04-26 15:05 479K
20260426T12Z_MSC_RDPS_WindU_IsbL-0550_RLatLon0.09_PT084H.grib2 2026-04-26 15:05 463K
20260426T12Z_MSC_RDPS_WindU_IsbL-0600_RLatLon0.09_PT084H.grib2 2026-04-26 15:05 470K
20260426T12Z_MSC_RDPS_WindU_IsbL-0650_RLatLon0.09_PT084H.grib2 2026-04-26 15:05 488K
20260426T12Z_MSC_RDPS_WindU_IsbL-0700_RLatLon0.09_PT084H.grib2 2026-04-26 15:05 509K
20260426T12Z_MSC_RDPS_WindU_IsbL-0750_RLatLon0.09_PT084H.grib2 2026-04-26 15:05 533K
20260426T12Z_MSC_RDPS_WindU_IsbL-0800_RLatLon0.09_PT084H.grib2 2026-04-26 15:05 567K
20260426T12Z_MSC_RDPS_WindU_IsbL-0850_RLatLon0.09_PT084H.grib2 2026-04-26 15:05 612K
20260426T12Z_MSC_RDPS_WindU_IsbL-0875_RLatLon0.09_PT084H.grib2 2026-04-26 15:05 629K
20260426T12Z_MSC_RDPS_WindU_IsbL-0900_RLatLon0.09_PT084H.grib2 2026-04-26 15:05 640K
20260426T12Z_MSC_RDPS_WindU_IsbL-0925_RLatLon0.09_PT084H.grib2 2026-04-26 15:05 646K
20260426T12Z_MSC_RDPS_WindU_IsbL-0950_RLatLon0.09_PT084H.grib2 2026-04-26 15:05 644K
20260426T12Z_MSC_RDPS_WindU_IsbL-0970_RLatLon0.09_PT084H.grib2 2026-04-26 15:05 642K
20260426T12Z_MSC_RDPS_WindU_IsbL-0985_RLatLon0.09_PT084H.grib2 2026-04-26 15:05 777K
20260426T12Z_MSC_RDPS_WindU_IsbL-1000_RLatLon0.09_PT084H.grib2 2026-04-26 15:05 771K
20260426T12Z_MSC_RDPS_WindU_IsbL-1015_RLatLon0.09_PT084H.grib2 2026-04-26 15:05 765K
20260426T12Z_MSC_RDPS_WindV_AGL-10m_RLatLon0.09_PT084H.grib2 2026-04-26 15:05 426K
20260426T12Z_MSC_RDPS_WindV_AGL-120m_RLatLon0.09_PT084H.grib2 2026-04-26 15:05 522K
20260426T12Z_MSC_RDPS_WindV_AGL-40m_RLatLon0.09_PT084H.grib2 2026-04-26 15:05 525K
20260426T12Z_MSC_RDPS_WindV_AGL-80m_RLatLon0.09_PT084H.grib2 2026-04-26 15:05 522K
20260426T12Z_MSC_RDPS_WindV_IsbL-0001_RLatLon0.09_PT084H.grib2 2026-04-26 15:05 247K
20260426T12Z_MSC_RDPS_WindV_IsbL-0005_RLatLon0.09_PT084H.grib2 2026-04-26 15:05 289K
20260426T12Z_MSC_RDPS_WindV_IsbL-0010_RLatLon0.09_PT084H.grib2 2026-04-26 15:05 303K
20260426T12Z_MSC_RDPS_WindV_IsbL-0020_RLatLon0.09_PT084H.grib2 2026-04-26 15:05 319K
20260426T12Z_MSC_RDPS_WindV_IsbL-0030_RLatLon0.09_PT084H.grib2 2026-04-26 15:05 318K
20260426T12Z_MSC_RDPS_WindV_IsbL-0050_RLatLon0.09_PT084H.grib2 2026-04-26 15:05 343K
20260426T12Z_MSC_RDPS_WindV_IsbL-0100_RLatLon0.09_PT084H.grib2 2026-04-26 15:05 338K
20260426T12Z_MSC_RDPS_WindV_IsbL-0150_RLatLon0.09_PT084H.grib2 2026-04-26 15:05 404K
20260426T12Z_MSC_RDPS_WindV_IsbL-0175_RLatLon0.09_PT084H.grib2 2026-04-26 15:05 334K
20260426T12Z_MSC_RDPS_WindV_IsbL-0200_RLatLon0.09_PT084H.grib2 2026-04-26 15:05 346K
20260426T12Z_MSC_RDPS_WindV_IsbL-0225_RLatLon0.09_PT084H.grib2 2026-04-26 15:05 375K
20260426T12Z_MSC_RDPS_WindV_IsbL-0250_RLatLon0.09_PT084H.grib2 2026-04-26 15:05 377K
20260426T12Z_MSC_RDPS_WindV_IsbL-0275_RLatLon0.09_PT084H.grib2 2026-04-26 15:05 389K
20260426T12Z_MSC_RDPS_WindV_IsbL-0300_RLatLon0.09_PT084H.grib2 2026-04-26 15:05 384K
20260426T12Z_MSC_RDPS_WindV_IsbL-0350_RLatLon0.09_PT084H.grib2 2026-04-26 15:05 368K
20260426T12Z_MSC_RDPS_WindV_IsbL-0400_RLatLon0.09_PT084H.grib2 2026-04-26 15:05 369K
20260426T12Z_MSC_RDPS_WindV_IsbL-0450_RLatLon0.09_PT084H.grib2 2026-04-26 15:05 475K
20260426T12Z_MSC_RDPS_WindV_IsbL-0500_RLatLon0.09_PT084H.grib2 2026-04-26 15:05 477K
20260426T12Z_MSC_RDPS_WindV_IsbL-0550_RLatLon0.09_PT084H.grib2 2026-04-26 15:05 478K
20260426T12Z_MSC_RDPS_WindV_IsbL-0600_RLatLon0.09_PT084H.grib2 2026-04-26 15:05 486K
20260426T12Z_MSC_RDPS_WindV_IsbL-0650_RLatLon0.09_PT084H.grib2 2026-04-26 15:05 486K
20260426T12Z_MSC_RDPS_WindV_IsbL-0700_RLatLon0.09_PT084H.grib2 2026-04-26 15:05 506K
20260426T12Z_MSC_RDPS_WindV_IsbL-0750_RLatLon0.09_PT084H.grib2 2026-04-26 15:05 528K
20260426T12Z_MSC_RDPS_WindV_IsbL-0800_RLatLon0.09_PT084H.grib2 2026-04-26 15:05 562K
20260426T12Z_MSC_RDPS_WindV_IsbL-0850_RLatLon0.09_PT084H.grib2 2026-04-26 15:05 609K
20260426T12Z_MSC_RDPS_WindV_IsbL-0875_RLatLon0.09_PT084H.grib2 2026-04-26 15:05 626K
20260426T12Z_MSC_RDPS_WindV_IsbL-0900_RLatLon0.09_PT084H.grib2 2026-04-26 15:05 638K
20260426T12Z_MSC_RDPS_WindV_IsbL-0925_RLatLon0.09_PT084H.grib2 2026-04-26 15:05 644K
20260426T12Z_MSC_RDPS_WindV_IsbL-0950_RLatLon0.09_PT084H.grib2 2026-04-26 15:05 642K
20260426T12Z_MSC_RDPS_WindV_IsbL-0970_RLatLon0.09_PT084H.grib2 2026-04-26 15:05 782K
20260426T12Z_MSC_RDPS_WindV_IsbL-0985_RLatLon0.09_PT084H.grib2 2026-04-26 15:05 779K
20260426T12Z_MSC_RDPS_WindV_IsbL-1000_RLatLon0.09_PT084H.grib2 2026-04-26 15:05 772K
20260426T12Z_MSC_RDPS_WindV_IsbL-1015_RLatLon0.09_PT084H.grib2 2026-04-26 15:05 812K